Time,TemperatureF,DewpointF,PressureIn,WindDirection,WindDirectionDegrees,WindSpeedMPH,WindSpeedGustMPH,Humidity,HourlyPrecipIn,Conditions,Clouds,dailyrainin,SoftwareType,DateUTC
2013-02-18 00:05:00,14.4,0.4,29.82,WSW,248,20.0,26.0,53,0.00,,,0.00,Wunderground v.1.15,2013-02-18 05:05:00,
2013-02-18 00:10:00,14.3,0.3,29.82,West,277,6.0,22.0,53,0.00,,,0.00,Wunderground v.1.15,2013-02-18 05:10:00,
2013-02-18 00:15:00,14.2,0.2,29.82,NW,314,10.0,22.0,53,0.00,,,0.00,Wunderground v.1.15,2013-02-18 05:15:00,
2013-02-18 00:20:00,14.1,0.5,29.83,WSW,250,12.0,15.0,54,0.00,,,0.00,Wunderground v.1.15,2013-02-18 05:20:00,
2013-02-18 00:25:00,14.1,0.5,29.83,West,280,7.0,15.0,54,0.00,,,0.00,Wunderground v.1.15,2013-02-18 05:25:00,
2013-02-18 00:30:00,14.0,0.4,29.83,WNW,284,18.0,18.0,54,0.00,,,0.00,Wunderground v.1.15,2013-02-18 05:30:00,
2013-02-18 00:35:00,14.0,0.4,29.84,West,268,15.0,18.0,54,0.00,,,0.00,Wunderground v.1.15,2013-02-18 05:35:00,
2013-02-18 00:40:00,13.9,0.3,29.83,West,271,10.0,12.0,54,0.00,,,0.00,Wunderground v.1.15,2013-02-18 05:40:00,
2013-02-18 00:45:00,13.9,0.7,29.84,WSW,244,11.0,13.0,55,0.00,,,0.00,Wunderground v.1.15,2013-02-18 05:45:00,
2013-02-18 00:51:00,13.8,0.2,29.84,West,281,8.0,11.0,54,0.00,,,0.00,Wunderground v.1.15,2013-02-18 05:51:00,
2013-02-18 00:56:00,13.8,0.2,29.84,West,269,12.0,20.0,54,0.00,,,0.00,Wunderground v.1.15,2013-02-18 05:56:00,
2013-02-18 01:01:00,13.8,0.6,29.84,West,264,13.0,17.0,55,0.00,,,0.00,Wunderground v.1.15,2013-02-18 06:01:00,
2013-02-18 01:06:00,13.8,0.2,29.84,WNW,296,4.0,17.0,54,0.00,,,0.00,Wunderground v.1.15,2013-02-18 06:06:00,
2013-02-18 01:11:00,13.7,0.5,29.85,WNW,300,8.0,11.0,55,0.00,,,0.00,Wunderground v.1.15,2013-02-18 06:11:00,
2013-02-18 01:17:00,13.7,0.1,29.85,WNW,302,8.0,9.0,54,0.00,,,0.00,Wunderground v.1.15,2013-02-18 06:17:00,
2013-02-18 01:23:00,13.8,0.2,29.86,NW,316,11.0,24.0,54,0.00,,,0.00,Wunderground v.1.15,2013-02-18 06:23:00,
2013-02-18 01:28:00,13.7,0.5,29.85,NW,306,4.0,11.0,55,0.00,,,0.00,Wunderground v.1.15,2013-02-18 06:28:00,
2013-02-18 01:33:00,13.7,0.1,29.85,WNW,293,8.0,16.0,54,0.00,,,0.00,Wunderground v.1.15,2013-02-18 06:33:00,
2013-02-18 01:39:00,13.6,0.4,29.85,NNW,344,8.0,10.0,55,0.00,,,0.00,Wunderground v.1.15,2013-02-18 06:39:00,
2013-02-18 01:44:00,13.6,0.4,29.86,SW,231,14.0,14.0,55,0.00,,,0.00,Wunderground v.1.15,2013-02-18 06:44:00,
2013-02-18 01:49:00,13.6,0.4,29.86,WNW,288,12.0,12.0,55,0.00,,,0.00,Wunderground v.1.15,2013-02-18 06:49:00,
2013-02-18 01:54:00,13.6,0.4,29.86,West,280,15.0,15.0,55,0.00,,,0.00,Wunderground v.1.15,2013-02-18 06:54:00,
2013-02-18 01:59:00,13.7,1.3,29.86,NNE,33,12.0,14.0,57,0.00,,,0.00,Wunderground v.1.15,2013-02-18 06:59:00,
2013-02-18 02:05:00,13.6,0.0,29.86,NNW,333,8.0,18.0,54,0.00,,,0.00,Wunderground v.1.15,2013-02-18 07:05:00,
2013-02-18 02:10:00,13.6,0.4,29.87,SSW,205,5.0,13.0,55,0.00,,,0.00,Wunderground v.1.15,2013-02-18 07:10:00,
2013-02-18 02:15:00,13.6,0.4,29.87,ESE,109,10.0,13.0,55,0.00,,,0.00,Wunderground v.1.15,2013-02-18 07:15:00,
2013-02-18 02:20:00,13.5,0.3,29.87,WNW,284,10.0,18.0,55,0.00,,,0.00,Wunderground v.1.15,2013-02-18 07:20:00,
2013-02-18 02:25:00,13.6,0.8,29.87,WNW,290,6.0,18.0,56,0.00,,,0.00,Wunderground v.1.15,2013-02-18 07:25:00,
2013-02-18 02:30:00,13.5,0.7,29.88,West,263,17.0,19.0,56,0.00,,,0.00,Wunderground v.1.15,2013-02-18 07:30:00,
2013-02-18 02:35:00,13.5,0.3,29.88,NW,305,6.0,19.0,55,0.00,,,0.00,Wunderground v.1.15,2013-02-18 07:35:00,
2013-02-18 02:40:00,13.3,0.1,29.88,WNW,302,12.0,20.0,55,0.00,,,0.00,Wunderground v.1.15,2013-02-18 07:40:00,
2013-02-18 02:45:00,13.4,-0.2,29.88,West,272,12.0,20.0,54,0.00,,,0.00,Wunderground v.1.15,2013-02-18 07:45:00,
2013-02-18 02:50:00,13.3,-0.3,29.88,WSW,252,6.0,22.0,54,0.00,,,0.00,Wunderground v.1.15,2013-02-18 07:50:00,
2013-02-18 02:55:00,13.2,0.0,29.89,West,263,7.0,22.0,55,0.00,,,0.00,Wunderground v.1.15,2013-02-18 07:55:00,
2013-02-18 03:00:00,13.2,0.0,29.89,West,279,13.0,17.0,55,0.00,,,0.00,Wunderground v.1.15,2013-02-18 08:00:00,
2013-02-18 03:05:00,13.2,0.0,29.89,West,280,11.0,21.0,55,0.00,,,0.00,Wunderground v.1.15,2013-02-18 08:05:00,
2013-02-18 03:10:00,13.1,-0.1,29.89,NW,322,13.0,18.0,55,0.00,,,0.00,Wunderground v.1.15,2013-02-18 08:10:00,
2013-02-18 03:15:00,13.1,-0.5,29.90,West,276,10.0,18.0,54,0.00,,,0.00,Wunderground v.1.15,2013-02-18 08:15:00,
2013-02-18 03:20:00,13.0,-0.2,29.90,WNW,284,3.0,16.0,55,0.00,,,0.00,Wunderground v.1.15,2013-02-18 08:20:00,
2013-02-18 03:25:00,13.1,-0.1,29.90,WSW,254,11.0,17.0,55,0.00,,,0.00,Wunderground v.1.15,2013-02-18 08:25:00,
2013-02-18 03:30:00,13.1,-0.1,29.91,West,276,8.0,17.0,55,0.00,,,0.00,Wunderground v.1.15,2013-02-18 08:30:00,
2013-02-18 03:36:00,13.1,-0.1,29.91,West,267,6.0,17.0,55,0.00,,,0.00,Wunderground v.1.15,2013-02-18 08:36:00,
2013-02-18 03:41:00,13.0,-0.2,29.91,NW,310,11.0,12.0,55,0.00,,,0.00,Wunderground v.1.15,2013-02-18 08:41:00,
2013-02-18 03:46:00,13.0,-0.2,29.90,WNW,297,11.0,18.0,55,0.00,,,0.00,Wunderground v.1.15,2013-02-18 08:46:00,
2013-02-18 03:51:00,13.1,-0.1,29.91,North,5,12.0,20.0,55,0.00,,,0.00,Wunderground v.1.15,2013-02-18 08:51:00,
2013-02-18 03:56:00,13.1,-0.1,29.92,NW,307,11.0,20.0,55,0.00,,,0.00,Wunderground v.1.15,2013-02-18 08:56:00,
2013-02-18 04:01:00,13.1,-0.1,29.92,WSW,253,11.0,16.0,55,0.00,,,0.00,Wunderground v.1.15,2013-02-18 09:01:00,
2013-02-18 04:06:00,13.3,0.5,29.92,West,275,12.0,19.0,56,0.00,,,0.00,Wunderground v.1.15,2013-02-18 09:06:00,
2013-02-18 04:11:00,13.5,1.8,29.93,WNW,286,7.0,15.0,59,0.00,,,0.00,Wunderground v.1.15,2013-02-18 09:11:00,
2013-02-18 04:16:00,13.4,0.6,29.93,WSW,258,11.0,19.0,56,0.00,,,0.00,Wunderground v.1.15,2013-02-18 09:16:00,
2013-02-18 04:21:00,13.3,0.5,29.93,WSW,254,9.0,21.0,56,0.00,,,0.00,Wunderground v.1.15,2013-02-18 09:21:00,
2013-02-18 04:26:00,13.2,0.4,29.93,WNW,284,4.0,21.0,56,0.00,,,0.00,Wunderground v.1.15,2013-02-18 09:26:00,
2013-02-18 04:31:00,13.3,0.5,29.93,WNW,298,6.0,20.0,56,0.00,,,0.00,Wunderground v.1.15,2013-02-18 09:31:00,
2013-02-18 04:36:00,13.3,0.1,29.93,WNW,286,9.0,20.0,55,0.00,,,0.00,Wunderground v.1.15,2013-02-18 09:36:00,
2013-02-18 04:41:00,13.3,0.5,29.94,WNW,288,13.0,20.0,56,0.00,,,0.00,Wunderground v.1.15,2013-02-18 09:41:00,
2013-02-18 04:46:00,13.3,0.1,29.94,NW,321,16.0,23.0,55,0.00,,,0.00,Wunderground v.1.15,2013-02-18 09:46:00,
2013-02-18 04:51:00,13.2,0.0,29.95,West,272,5.0,18.0,55,0.00,,,0.00,Wunderground v.1.15,2013-02-18 09:51:00,
2013-02-18 04:56:00,13.3,0.1,29.95,WSW,256,14.0,20.0,55,0.00,,,0.00,Wunderground v.1.15,2013-02-18 09:56:00,
2013-02-18 05:01:00,13.2,0.0,29.95,West,267,6.0,19.0,55,0.00,,,0.00,Wunderground v.1.15,2013-02-18 10:01:00,
2013-02-18 05:06:00,13.3,0.5,29.96,West,269,8.0,19.0,56,0.00,,,0.00,Wunderground v.1.15,2013-02-18 10:06:00,
2013-02-18 05:11:00,13.4,1.0,29.96,West,267,4.0,18.0,57,0.00,,,0.00,Wunderground v.1.15,2013-02-18 10:11:00,
2013-02-18 05:16:00,13.3,0.9,29.97,WNW,287,7.0,21.0,57,0.00,,,0.00,Wunderground v.1.15,2013-02-18 10:16:00,
2013-02-18 05:21:00,13.3,0.5,29.97,West,278,7.0,18.0,56,0.00,,,0.00,Wunderground v.1.15,2013-02-18 10:21:00,
2013-02-18 05:26:00,13.2,0.4,29.98,NW,316,5.0,18.0,56,0.00,,,0.00,Wunderground v.1.15,2013-02-18 10:26:00,
2013-02-18 05:31:00,13.1,0.3,29.98,WNW,290,4.0,13.0,56,0.00,,,0.00,Wunderground v.1.15,2013-02-18 10:31:00,
2013-02-18 05:36:00,13.0,-0.2,29.98,West,263,4.0,18.0,55,0.00,,,0.00,Wunderground v.1.15,2013-02-18 10:36:00,
2013-02-18 05:41:00,12.9,-0.3,29.98,SW,234,11.0,17.0,55,0.00,,,0.00,Wunderground v.1.15,2013-02-18 10:41:00,
2013-02-18 05:46:00,12.9,-0.3,29.99,West,268,16.0,23.0,55,0.00,,,0.00,Wunderground v.1.15,2013-02-18 10:46:00,
2013-02-18 05:51:00,12.8,0.0,29.99,West,276,8.0,16.0,56,0.00,,,0.00,Wunderground v.1.15,2013-02-18 10:51:00,
2013-02-18 05:56:00,12.8,-0.3,29.99,West,275,10.0,19.0,55,0.00,,,0.00,Wunderground v.1.15,2013-02-18 10:56:00,
2013-02-18 06:01:00,12.8,0.0,30.00,NW,304,8.0,17.0,56,0.00,,,0.00,Wunderground v.1.15,2013-02-18 11:01:00,
2013-02-18 06:06:00,12.9,-0.3,30.01,WSW,246,7.0,19.0,55,0.00,,,0.00,Wunderground v.1.15,2013-02-18 11:06:00,
2013-02-18 06:11:00,12.8,0.0,30.01,West,260,12.0,18.0,56,0.00,,,0.00,Wunderground v.1.15,2013-02-18 11:11:00,
2013-02-18 06:16:00,12.6,-0.2,30.01,NW,308,14.0,18.0,56,0.00,,,0.00,Wunderground v.1.15,2013-02-18 11:16:00,
2013-02-18 06:21:00,12.6,-0.2,30.01,West,260,8.0,13.0,56,0.00,,,0.00,Wunderground v.1.15,2013-02-18 11:21:00,
2013-02-18 06:26:00,12.6,-0.2,30.02,West,261,7.0,22.0,56,0.00,,,0.00,Wunderground v.1.15,2013-02-18 11:26:00,
2013-02-18 06:32:00,12.9,1.2,30.02,WSW,257,7.0,21.0,59,0.00,,,0.00,Wunderground v.1.15,2013-02-18 11:32:00,
2013-02-18 06:37:00,12.8,0.8,30.03,WNW,294,15.0,22.0,58,0.00,,,0.00,Wunderground v.1.15,2013-02-18 11:37:00,
2013-02-18 06:42:00,12.8,0.8,30.03,WSW,248,4.0,14.0,58,0.00,,,0.00,Wunderground v.1.15,2013-02-18 11:42:00,
2013-02-18 06:47:00,12.7,0.7,30.04,WSW,255,5.0,20.0,58,0.00,,,0.00,Wunderground v.1.15,2013-02-18 11:47:00,
2013-02-18 06:52:00,12.5,0.5,30.04,West,265,5.0,14.0,58,0.00,,,0.00,Wunderground v.1.15,2013-02-18 11:52:00,
2013-02-18 06:57:00,12.6,1.3,30.05,WNW,286,11.0,11.0,60,0.00,,,0.00,Wunderground v.1.15,2013-02-18 11:57:00,
2013-02-18 07:02:00,12.6,2.0,30.05,West,279,7.0,14.0,62,0.00,,,0.00,Wunderground v.1.15,2013-02-18 12:02:00,
2013-02-18 07:07:00,12.4,0.0,30.06,WNW,288,5.0,8.0,57,0.00,,,0.00,Wunderground v.1.15,2013-02-18 12:07:00,
2013-02-18 07:12:00,12.3,-0.1,30.06,NW,321,15.0,15.0,57,0.00,,,0.00,Wunderground v.1.15,2013-02-18 12:12:00,
2013-02-18 07:17:00,12.5,0.1,30.06,NW,319,2.0,8.0,57,0.00,,,0.00,Wunderground v.1.15,2013-02-18 12:17:00,
2013-02-18 07:22:00,12.5,0.1,30.07,West,273,8.0,13.0,57,0.00,,,0.00,Wunderground v.1.15,2013-02-18 12:22:00,
2013-02-18 07:28:00,12.7,-0.1,30.07,NW,308,4.0,10.0,56,0.00,,,0.00,Wunderground v.1.15,2013-02-18 12:28:00,
2013-02-18 07:33:00,12.9,0.1,30.07,WSW,249,6.0,16.0,56,0.00,,,0.00,Wunderground v.1.15,2013-02-18 12:33:00,
2013-02-18 07:39:00,13.1,-0.1,30.07,West,275,12.0,12.0,55,0.00,,,0.00,Wunderground v.1.15,2013-02-18 12:39:00,
2013-02-18 07:44:00,13.4,0.6,30.07,West,269,6.0,14.0,56,0.00,,,0.00,Wunderground v.1.15,2013-02-18 12:44:00,
2013-02-18 07:49:00,13.6,0.8,30.08,NW,324,6.0,13.0,56,0.00,,,0.00,Wunderground v.1.15,2013-02-18 12:49:00,
2013-02-18 07:54:00,13.8,0.6,30.08,WSW,256,17.0,17.0,55,0.00,,,0.00,Wunderground v.1.15,2013-02-18 12:54:00,
2013-02-18 07:59:00,13.9,1.1,30.08,WNW,302,8.0,22.0,56,0.00,,,0.00,Wunderground v.1.15,2013-02-18 12:59:00,
2013-02-18 08:04:00,14.0,0.4,30.09,WNW,284,7.0,22.0,54,0.00,,,0.00,Wunderground v.1.15,2013-02-18 13:04:00,
2013-02-18 08:09:00,14.3,1.4,30.09,West,278,10.0,21.0,56,0.00,,,0.00,Wunderground v.1.15,2013-02-18 13:09:00,
2013-02-18 08:14:00,14.5,1.6,30.09,West,267,14.0,21.0,56,0.00,,,0.00,Wunderground v.1.15,2013-02-18 13:14:00,
2013-02-18 08:19:00,14.6,1.7,30.09,WSW,248,10.0,13.0,56,0.00,,,0.00,Wunderground v.1.15,2013-02-18 13:19:00,
2013-02-18 08:24:00,14.7,1.0,30.10,WNW,297,11.0,18.0,54,0.00,,,0.00,Wunderground v.1.15,2013-02-18 13:24:00,
2013-02-18 08:29:00,15.1,1.4,30.10,WNW,282,7.0,18.0,54,0.00,,,0.00,Wunderground v.1.15,2013-02-18 13:29:00,
2013-02-18 08:34:00,15.3,1.6,30.10,West,266,9.0,20.0,54,0.00,,,0.00,Wunderground v.1.15,2013-02-18 13:34:00,
2013-02-18 08:39:00,15.3,0.8,30.11,WSW,255,11.0,22.0,52,0.00,,,0.00,Wunderground v.1.15,2013-02-18 13:39:00,
2013-02-18 08:44:00,15.3,0.8,30.11,West,263,8.0,22.0,52,0.00,,,0.00,Wunderground v.1.15,2013-02-18 13:44:00,
2013-02-18 08:49:00,15.5,0.6,30.11,WNW,298,5.0,19.0,51,0.00,,,0.00,Wunderground v.1.15,2013-02-18 13:49:00,
2013-02-18 08:54:00,15.9,0.9,30.11,WNW,293,14.0,21.0,51,0.00,,,0.00,Wunderground v.1.15,2013-02-18 13:54:00,
2013-02-18 08:59:00,16.2,1.2,30.11,NW,313,4.0,17.0,51,0.00,,,0.00,Wunderground v.1.15,2013-02-18 13:59:00,
2013-02-18 09:04:00,16.3,0.9,30.11,WNW,284,8.0,18.0,50,0.00,,,0.00,Wunderground v.1.15,2013-02-18 14:04:00,
2013-02-18 09:09:00,16.6,1.6,30.11,NNW,340,6.0,12.0,51,0.00,,,0.00,Wunderground v.1.15,2013-02-18 14:09:00,
2013-02-18 09:14:00,16.8,0.9,30.12,NW,305,11.0,14.0,49,0.00,,,0.00,Wunderground v.1.15,2013-02-18 14:14:00,
2013-02-18 09:19:00,17.2,1.3,30.11,West,280,9.0,14.0,49,0.00,,,0.00,Wunderground v.1.15,2013-02-18 14:19:00,
2013-02-18 09:24:00,17.7,1.7,30.11,West,275,6.0,16.0,49,0.00,,,0.00,Wunderground v.1.15,2013-02-18 14:24:00,
2013-02-18 09:29:00,17.9,1.5,30.11,West,274,17.0,25.0,48,0.00,,,0.00,Wunderground v.1.15,2013-02-18 14:29:00,
2013-02-18 09:35:00,18.3,2.7,30.12,WNW,297,6.0,25.0,50,0.00,,,0.00,Wunderground v.1.15,2013-02-18 14:35:00,
2013-02-18 09:40:00,18.2,2.2,30.12,NW,304,14.0,19.0,49,0.00,,,0.00,Wunderground v.1.15,2013-02-18 14:40:00,
2013-02-18 09:45:00,18.1,1.7,30.12,SW,215,14.0,21.0,48,0.00,,,0.00,Wunderground v.1.15,2013-02-18 14:45:00,
2013-02-18 09:50:00,18.5,2.5,30.12,WSW,248,11.0,19.0,49,0.00,,,0.00,Wunderground v.1.15,2013-02-18 14:50:00,
2013-02-18 09:55:00,18.8,1.9,30.12,West,281,14.0,19.0,47,0.00,,,0.00,Wunderground v.1.15,2013-02-18 14:55:00,
2013-02-18 10:00:00,18.9,2.4,30.13,West,267,12.0,12.0,48,0.00,,,0.00,Wunderground v.1.15,2013-02-18 15:00:00,
2013-02-18 10:05:00,19.1,1.7,30.13,NW,320,7.0,19.0,46,0.00,,,0.00,Wunderground v.1.15,2013-02-18 15:05:00,
2013-02-18 10:10:00,19.6,1.7,30.13,NW,310,16.0,16.0,45,0.00,,,0.00,Wunderground v.1.15,2013-02-18 15:10:00,
2013-02-18 10:15:00,20.0,1.5,30.13,ESE,105,3.0,17.0,44,0.00,,,0.00,Wunderground v.1.15,2013-02-18 15:15:00,
2013-02-18 10:20:00,20.3,1.3,30.13,WSW,249,13.0,15.0,43,0.00,,,0.00,Wunderground v.1.15,2013-02-18 15:20:00,
2013-02-18 10:25:00,20.9,1.9,30.13,West,281,5.0,21.0,43,0.00,,,0.00,Wunderground v.1.15,2013-02-18 15:25:00,
2013-02-18 10:30:00,21.3,1.7,30.12,West,270,10.0,19.0,42,0.00,,,0.00,Wunderground v.1.15,2013-02-18 15:30:00,
2013-02-18 10:35:00,21.5,1.9,30.12,West,263,13.0,19.0,42,0.00,,,0.00,Wunderground v.1.15,2013-02-18 15:35:00,
2013-02-18 10:40:00,21.4,1.3,30.13,WSW,252,12.0,17.0,41,0.00,,,0.00,Wunderground v.1.15,2013-02-18 15:40:00,
2013-02-18 10:45:00,21.3,1.2,30.13,WSW,254,13.0,24.0,41,0.00,,,0.00,Wunderground v.1.15,2013-02-18 15:45:00,
2013-02-18 10:50:00,20.8,0.8,30.13,WSW,258,4.0,15.0,41,0.00,,,0.00,Wunderground v.1.15,2013-02-18 15:50:00,
2013-02-18 10:55:00,21.2,1.1,30.13,WSW,246,6.0,22.0,41,0.00,,,0.00,Wunderground v.1.15,2013-02-18 15:55:00,
2013-02-18 11:01:00,21.5,0.9,30.14,NW,317,13.0,18.0,40,0.00,,,0.00,Wunderground v.1.15,2013-02-18 16:01:00,
2013-02-18 11:06:00,21.4,0.2,30.14,NW,317,13.0,22.0,39,0.00,,,0.00,Wunderground v.1.15,2013-02-18 16:06:00,
2013-02-18 11:11:00,22.2,1.5,30.13,WSW,241,4.0,11.0,40,0.00,,,0.00,Wunderground v.1.15,2013-02-18 16:11:00,
2013-02-18 11:16:00,22.8,1.5,30.14,NW,315,12.0,17.0,39,0.00,,,0.00,Wunderground v.1.15,2013-02-18 16:16:00,
2013-02-18 11:21:00,22.8,2.0,30.14,WNW,292,10.0,14.0,40,0.00,,,0.00,Wunderground v.1.15,2013-02-18 16:21:00,
2013-02-18 11:26:00,22.4,1.1,30.14,West,274,8.0,17.0,39,0.00,,,0.00,Wunderground v.1.15,2013-02-18 16:26:00,
2013-02-18 11:31:00,22.0,0.2,30.14,NNE,17,4.0,19.0,38,0.00,,,0.00,Wunderground v.1.15,2013-02-18 16:31:00,
2013-02-18 11:36:00,22.9,1.6,30.14,NNW,333,15.0,19.0,39,0.00,,,0.00,Wunderground v.1.15,2013-02-18 16:36:00,
2013-02-18 11:41:00,23.2,2.4,30.14,West,259,3.0,12.0,40,0.00,,,0.00,Wunderground v.1.15,2013-02-18 16:41:00,
2013-02-18 11:46:00,24.1,3.8,30.14,West,272,10.0,14.0,41,0.00,,,0.00,Wunderground v.1.15,2013-02-18 16:46:00,
2013-02-18 11:51:00,24.0,2.6,30.14,WNW,298,10.0,16.0,39,0.00,,,0.00,Wunderground v.1.15,2013-02-18 16:51:00,
2013-02-18 11:56:00,23.6,2.8,30.14,West,261,17.0,20.0,40,0.00,,,0.00,Wunderground v.1.15,2013-02-18 16:56:00,
2013-02-18 12:01:00,24.2,1.0,30.14,WNW,285,8.0,15.0,36,0.00,,,0.00,Wunderground v.1.15,2013-02-18 17:01:00,
2013-02-18 12:06:00,24.5,0.7,30.13,NNW,333,10.0,19.0,35,0.00,,,0.00,Wunderground v.1.15,2013-02-18 17:06:00,
2013-02-18 12:11:00,25.0,1.8,30.13,NW,305,8.0,16.0,36,0.00,,,0.00,Wunderground v.1.15,2013-02-18 17:11:00,
2013-02-18 12:16:00,25.2,0.7,30.13,WSW,245,15.0,21.0,34,0.00,,,0.00,Wunderground v.1.15,2013-02-18 17:16:00,
2013-02-18 12:21:00,25.2,0.7,30.13,WNW,282,12.0,21.0,34,0.00,,,0.00,Wunderground v.1.15,2013-02-18 17:21:00,
2013-02-18 12:26:00,25.4,0.9,30.13,WNW,296,7.0,21.0,34,0.00,,,0.00,Wunderground v.1.15,2013-02-18 17:26:00,
2013-02-18 12:31:00,25.4,0.2,30.14,SSW,206,7.0,20.0,33,0.00,,,0.00,Wunderground v.1.15,2013-02-18 17:31:00,
2013-02-18 12:36:00,25.8,1.2,30.14,SW,220,5.0,20.0,34,0.00,,,0.00,Wunderground v.1.15,2013-02-18 17:36:00,
2013-02-18 12:41:00,26.0,0.1,30.14,West,269,11.0,18.0,32,0.00,,,0.00,Wunderground v.1.15,2013-02-18 17:41:00,
2013-02-18 12:47:00,26.1,1.5,30.14,NW,308,12.0,18.0,34,0.00,,,0.00,Wunderground v.1.15,2013-02-18 17:47:00,
2013-02-18 12:52:00,26.5,0.6,30.14,WNW,300,4.0,20.0,32,0.00,,,0.00,Wunderground v.1.15,2013-02-18 17:52:00,
2013-02-18 12:57:00,26.1,-0.5,30.15,WNW,296,10.0,22.0,31,0.00,,,0.00,Wunderground v.1.15,2013-02-18 17:57:00,
2013-02-18 13:02:00,26.6,3.2,30.14,North,355,7.0,13.0,36,0.00,,,0.00,Wunderground v.1.15,2013-02-18 18:02:00,
2013-02-18 13:07:00,26.9,1.6,30.15,West,271,6.0,22.0,33,0.00,,,0.00,Wunderground v.1.15,2013-02-18 18:07:00,
2013-02-18 13:12:00,26.6,0.7,30.14,WNW,284,6.0,23.0,32,0.00,,,0.00,Wunderground v.1.15,2013-02-18 18:12:00,
2013-02-18 13:17:00,27.4,3.3,30.14,NW,324,6.0,23.0,35,0.00,,,0.00,Wunderground v.1.15,2013-02-18 18:17:00,
2013-02-18 13:22:00,26.9,0.9,30.14,WSW,246,7.0,18.0,32,0.00,,,0.00,Wunderground v.1.15,2013-02-18 18:22:00,
2013-02-18 13:27:00,27.9,4.4,30.14,NNW,327,12.0,18.0,36,0.00,,,0.00,Wunderground v.1.15,2013-02-18 18:27:00,
2013-02-18 13:32:00,27.6,2.2,30.14,NNW,347,7.0,19.0,33,0.00,,,0.00,Wunderground v.1.15,2013-02-18 18:32:00,
2013-02-18 13:37:00,27.8,1.7,30.14,West,261,8.0,19.0,32,0.00,,,0.00,Wunderground v.1.15,2013-02-18 18:37:00,
2013-02-18 13:42:00,28.1,4.5,30.14,NNW,334,16.0,16.0,36,0.00,,,0.00,Wunderground v.1.15,2013-02-18 18:42:00,
2013-02-18 13:47:00,27.7,1.6,30.14,WSW,252,11.0,19.0,32,0.00,,,0.00,Wunderground v.1.15,2013-02-18 18:47:00,
2013-02-18 13:52:00,27.5,2.1,30.15,NW,309,13.0,21.0,33,0.00,,,0.00,Wunderground v.1.15,2013-02-18 18:52:00,
2013-02-18 13:57:00,27.4,0.0,30.15,WNW,293,6.0,9.0,30,0.00,,,0.00,Wunderground v.1.15,2013-02-18 18:57:00,
2013-02-18 14:02:00,27.2,-0.2,30.15,WSW,248,5.0,16.0,30,0.00,,,0.00,Wunderground v.1.15,2013-02-18 19:02:00,
2013-02-18 14:07:00,27.8,1.0,30.15,West,261,8.0,10.0,31,0.00,,,0.00,Wunderground v.1.15,2013-02-18 19:07:00,
2013-02-18 14:13:00,27.8,1.0,30.15,WSW,254,3.0,17.0,31,0.00,,,0.00,Wunderground v.1.15,2013-02-18 19:13:00,
2013-02-18 14:18:00,27.5,0.1,30.15,West,260,20.0,20.0,30,0.00,,,0.00,Wunderground v.1.15,2013-02-18 19:18:00,
2013-02-18 14:23:00,27.2,-0.2,30.16,SW,215,9.0,20.0,30,0.00,,,0.00,Wunderground v.1.15,2013-02-18 19:23:00,
2013-02-18 14:28:00,27.4,0.0,30.16,West,263,8.0,15.0,30,0.00,,,0.00,Wunderground v.1.15,2013-02-18 19:28:00,
2013-02-18 14:33:00,27.4,0.0,30.16,West,271,10.0,19.0,30,0.00,,,0.00,Wunderground v.1.15,2013-02-18 19:33:00,
2013-02-18 14:38:00,27.6,-0.6,30.16,NW,325,5.0,9.0,29,0.00,,,0.00,Wunderground v.1.15,2013-02-18 19:38:00,
2013-02-18 14:43:00,27.3,-0.8,30.16,WSW,257,9.0,17.0,29,0.00,,,0.00,Wunderground v.1.15,2013-02-18 19:43:00,
2013-02-18 14:48:00,27.5,0.1,30.16,West,270,6.0,10.0,30,0.00,,,0.00,Wunderground v.1.15,2013-02-18 19:48:00,
2013-02-18 14:53:00,27.5,0.1,30.16,SW,233,9.0,17.0,30,0.00,,,0.00,Wunderground v.1.15,2013-02-18 19:53:00,
2013-02-18 14:58:00,27.4,-0.7,30.16,WSW,256,11.0,17.0,29,0.00,,,0.00,Wunderground v.1.15,2013-02-18 19:58:00,
2013-02-18 15:03:00,27.4,-0.7,30.17,SW,220,16.0,17.0,29,0.00,,,0.00,Wunderground v.1.15,2013-02-18 20:03:00,
2013-02-18 15:08:00,27.4,-0.7,30.17,West,274,8.0,13.0,29,0.00,,,0.00,Wunderground v.1.15,2013-02-18 20:08:00,
2013-02-18 15:13:00,27.6,-1.3,30.17,West,277,10.0,21.0,28,0.00,,,0.00,Wunderground v.1.15,2013-02-18 20:13:00,
2013-02-18 15:18:00,27.6,-2.1,30.17,WSW,246,12.0,19.0,27,0.00,,,0.00,Wunderground v.1.15,2013-02-18 20:18:00,
2013-02-18 15:23:00,27.9,-1.8,30.17,West,271,11.0,19.0,27,0.00,,,0.00,Wunderground v.1.15,2013-02-18 20:23:00,
2013-02-18 15:29:00,27.7,-2.0,30.17,WNW,283,5.0,13.0,27,0.00,,,0.00,Wunderground v.1.15,2013-02-18 20:29:00,
2013-02-18 15:34:00,28.1,-1.7,30.17,WNW,284,7.0,16.0,27,0.00,,,0.00,Wunderground v.1.15,2013-02-18 20:34:00,
2013-02-18 15:39:00,28.2,-0.8,30.17,West,264,7.0,9.0,28,0.00,,,0.00,Wunderground v.1.15,2013-02-18 20:39:00,
2013-02-18 15:44:00,28.6,-0.4,30.17,WNW,295,11.0,13.0,28,0.00,,,0.00,Wunderground v.1.15,2013-02-18 20:44:00,
2013-02-18 15:49:00,28.6,-1.2,30.17,WSW,247,8.0,14.0,27,0.00,,,0.00,Wunderground v.1.15,2013-02-18 20:49:00,
2013-02-18 15:54:00,28.8,-0.3,30.17,West,279,5.0,14.0,28,0.00,,,0.00,Wunderground v.1.15,2013-02-18 20:54:00,
2013-02-18 15:59:00,28.8,-1.8,30.17,WNW,290,5.0,9.0,26,0.00,,,0.00,Wunderground v.1.15,2013-02-18 20:59:00,
2013-02-18 16:04:00,28.8,-1.8,30.17,WNW,300,9.0,18.0,26,0.00,,,0.00,Wunderground v.1.15,2013-02-18 21:04:00,
2013-02-18 16:09:00,28.6,-2.8,30.18,West,266,8.0,12.0,25,0.00,,,0.00,Wunderground v.1.15,2013-02-18 21:09:00,
2013-02-18 16:14:00,28.8,-1.8,30.18,NW,309,9.0,16.0,26,0.00,,,0.00,Wunderground v.1.15,2013-02-18 21:14:00,
2013-02-18 16:19:00,28.8,-1.0,30.18,NW,309,6.0,13.0,27,0.00,,,0.00,Wunderground v.1.15,2013-02-18 21:19:00,
2013-02-18 16:24:00,28.7,-1.9,30.18,WNW,287,7.0,14.0,26,0.00,,,0.00,Wunderground v.1.15,2013-02-18 21:24:00,
2013-02-18 16:29:00,28.5,-2.1,30.19,NNW,338,8.0,15.0,26,0.00,,,0.00,Wunderground v.1.15,2013-02-18 21:29:00,
2013-02-18 16:34:00,28.4,-1.4,30.19,West,279,5.0,17.0,27,0.00,,,0.00,Wunderground v.1.15,2013-02-18 21:34:00,
2013-02-18 16:39:00,28.4,-2.2,30.19,West,273,8.0,16.0,26,0.00,,,0.00,Wunderground v.1.15,2013-02-18 21:39:00,
2013-02-18 16:45:00,28.4,-1.4,30.19,WNW,284,13.0,16.0,27,0.00,,,0.00,Wunderground v.1.15,2013-02-18 21:45:00,
2013-02-18 16:50:00,28.1,-3.3,30.19,WNW,303,9.0,17.0,25,0.00,,,0.00,Wunderground v.1.15,2013-02-18 21:50:00,
2013-02-18 16:55:00,28.0,-2.5,30.19,West,279,6.0,19.0,26,0.00,,,0.00,Wunderground v.1.15,2013-02-18 21:55:00,
2013-02-18 17:00:00,28.0,-1.7,30.20,West,275,3.0,16.0,27,0.00,,,0.00,Wunderground v.1.15,2013-02-18 22:00:00,
2013-02-18 17:05:00,27.6,-1.3,30.19,NW,324,2.0,16.0,28,0.00,,,0.00,Wunderground v.1.15,2013-02-18 22:05:00,
2013-02-18 17:10:00,27.1,-1.0,30.19,WNW,282,5.0,12.0,29,0.00,,,0.00,Wunderground v.1.15,2013-02-18 22:10:00,
2013-02-18 17:15:00,26.8,-0.5,30.20,WNW,298,3.0,13.0,30,0.00,,,0.00,Wunderground v.1.15,2013-02-18 22:15:00,
2013-02-18 17:21:00,26.7,0.1,30.20,WNW,303,9.0,10.0,31,0.00,,,0.00,Wunderground v.1.15,2013-02-18 22:21:00,
2013-02-18 17:26:00,26.5,-0.8,30.20,WNW,296,3.0,13.0,30,0.00,,,0.00,Wunderground v.1.15,2013-02-18 22:26:00,
2013-02-18 17:31:00,26.5,-0.1,30.21,WNW,284,3.0,11.0,31,0.00,,,0.00,Wunderground v.1.15,2013-02-18 22:31:00,
2013-02-18 17:36:00,26.3,-1.0,30.21,West,260,7.0,12.0,30,0.00,,,0.00,Wunderground v.1.15,2013-02-18 22:36:00,
2013-02-18 17:41:00,26.3,-0.3,30.21,WNW,296,5.0,10.0,31,0.00,,,0.00,Wunderground v.1.15,2013-02-18 22:41:00,
2013-02-18 17:46:00,26.1,-0.5,30.22,West,274,5.0,14.0,31,0.00,,,0.00,Wunderground v.1.15,2013-02-18 22:46:00,
2013-02-18 17:51:00,26.0,0.1,30.22,NW,313,6.0,16.0,32,0.00,,,0.00,Wunderground v.1.15,2013-02-18 22:51:00,
2013-02-18 17:56:00,25.9,0.0,30.23,WSW,249,0.0,16.0,32,0.00,,,0.00,Wunderground v.1.15,2013-02-18 22:56:00,
2013-02-18 18:01:00,25.8,-0.1,30.22,North,350,5.0,10.0,32,0.00,,,0.00,Wunderground v.1.15,2013-02-18 23:01:00,
2013-02-18 18:07:00,25.7,0.5,30.22,West,275,4.0,11.0,33,0.00,,,0.00,Wunderground v.1.15,2013-02-18 23:07:00,
2013-02-18 18:12:00,25.7,1.8,30.22,West,277,3.0,12.0,35,0.00,,,0.00,Wunderground v.1.15,2013-02-18 23:12:00,
2013-02-18 18:17:00,25.8,6.9,30.22,WNW,303,5.0,12.0,44,0.00,,,0.00,Wunderground v.1.15,2013-02-18 23:17:00,
2013-02-18 18:22:00,25.9,2.0,30.22,West,271,5.0,10.0,35,0.00,,,0.00,Wunderground v.1.15,2013-02-18 23:22:00,
2013-02-18 18:27:00,25.6,1.7,30.22,West,274,6.0,11.0,35,0.00,,,0.00,Wunderground v.1.15,2013-02-18 23:27:00,
2013-02-18 18:32:00,25.6,2.3,30.23,West,269,3.0,11.0,36,0.00,,,0.00,Wunderground v.1.15,2013-02-18 23:32:00,
2013-02-18 18:37:00,25.2,0.1,30.23,WNW,295,3.0,11.0,33,0.00,,,0.00,Wunderground v.1.15,2013-02-18 23:37:00,
2013-02-18 18:42:00,25.0,0.5,30.23,West,264,9.0,9.0,34,0.00,,,0.00,Wunderground v.1.15,2013-02-18 23:42:00,
2013-02-18 18:47:00,25.0,0.5,30.23,West,265,4.0,11.0,34,0.00,,,0.00,Wunderground v.1.15,2013-02-18 23:47:00,
2013-02-18 18:52:00,24.8,0.4,30.23,WNW,297,9.0,14.0,34,0.00,,,0.00,Wunderground v.1.15,2013-02-18 23:52:00,
2013-02-18 18:57:00,24.7,0.3,30.24,WSW,246,0.0,14.0,34,0.00,,,0.00,Wunderground v.1.15,2013-02-18 23:57:00,
2013-02-18 19:02:00,24.6,0.8,30.24,West,272,4.0,9.0,35,0.00,,,0.00,Wunderground v.1.15,2013-02-19 00:02:00,
2013-02-18 19:07:00,24.5,0.1,30.24,West,261,3.0,7.0,34,0.00,,,0.00,Wunderground v.1.15,2013-02-19 00:07:00,
2013-02-18 19:12:00,24.4,0.0,30.24,WNW,293,3.0,9.0,34,0.00,,,0.00,Wunderground v.1.15,2013-02-19 00:12:00,
2013-02-18 19:17:00,24.3,0.5,30.24,WNW,299,5.0,8.0,35,0.00,,,0.00,Wunderground v.1.15,2013-02-19 00:17:00,
2013-02-18 19:22:00,24.3,0.5,30.24,WSW,252,4.0,11.0,35,0.00,,,0.00,Wunderground v.1.15,2013-02-19 00:22:00,
2013-02-18 19:28:00,24.2,1.0,30.25,West,261,2.0,5.0,36,0.00,,,0.00,Wunderground v.1.15,2013-02-19 00:28:00,
2013-02-18 19:33:00,24.3,1.1,30.25,WSW,245,8.0,18.0,36,0.00,,,0.00,Wunderground v.1.15,2013-02-19 00:33:00,
2013-02-18 19:38:00,24.2,1.6,30.25,SW,235,1.0,7.0,37,0.00,,,0.00,Wunderground v.1.15,2013-02-19 00:38:00,
2013-02-18 19:43:00,24.1,2.1,30.25,SW,228,5.0,7.0,38,0.00,,,0.00,Wunderground v.1.15,2013-02-19 00:43:00,
2013-02-18 19:48:00,24.1,2.1,30.25,West,268,3.0,4.0,38,0.00,,,0.00,Wunderground v.1.15,2013-02-19 00:48:00,
2013-02-18 19:53:00,24.3,2.9,30.25,WSW,249,6.0,14.0,39,0.00,,,0.00,Wunderground v.1.15,2013-02-19 00:53:00,
2013-02-18 19:58:00,24.3,2.3,30.24,WNW,282,7.0,7.0,38,0.00,,,0.00,Wunderground v.1.15,2013-02-19 00:58:00,
2013-02-18 20:04:00,23.9,0.8,30.24,West,269,6.0,14.0,36,0.00,,,0.00,Wunderground v.1.15,2013-02-19 01:04:00,
2013-02-18 20:09:00,23.9,0.8,30.24,WSW,249,3.0,8.0,36,0.00,,,0.00,Wunderground v.1.15,2013-02-19 01:09:00,
2013-02-18 20:14:00,23.8,0.7,30.25,West,280,1.0,10.0,36,0.00,,,0.00,Wunderground v.1.15,2013-02-19 01:14:00,
2013-02-18 20:19:00,23.7,1.2,30.25,WNW,294,5.0,5.0,37,0.00,,,0.00,Wunderground v.1.15,2013-02-19 01:19:00,
2013-02-18 20:24:00,23.7,0.6,30.26,WSW,247,3.0,12.0,36,0.00,,,0.00,Wunderground v.1.15,2013-02-19 01:24:00,
2013-02-18 20:29:00,23.6,1.1,30.26,WSW,252,7.0,7.0,37,0.00,,,0.00,Wunderground v.1.15,2013-02-19 01:29:00,
2013-02-18 20:34:00,23.6,1.1,30.26,WSW,255,7.0,9.0,37,0.00,,,0.00,Wunderground v.1.15,2013-02-19 01:34:00,
2013-02-18 20:39:00,23.6,1.1,30.26,SSW,213,2.0,4.0,37,0.00,,,0.00,Wunderground v.1.15,2013-02-19 01:39:00,
2013-02-18 20:44:00,23.4,1.5,30.27,SSW,202,3.0,4.0,38,0.00,,,0.00,Wunderground v.1.15,2013-02-19 01:44:00,
2013-02-18 20:49:00,23.3,1.4,30.27,WSW,248,1.0,4.0,38,0.00,,,0.00,Wunderground v.1.15,2013-02-19 01:49:00,
2013-02-18 20:54:00,23.3,2.0,30.27,WNW,292,2.0,5.0,39,0.00,,,0.00,Wunderground v.1.15,2013-02-19 01:54:00,
2013-02-18 20:59:00,23.4,1.5,30.27,WNW,288,3.0,6.0,38,0.00,,,0.00,Wunderground v.1.15,2013-02-19 01:59:00,
2013-02-18 21:04:00,23.4,1.5,30.27,NW,322,3.0,6.0,38,0.00,,,0.00,Wunderground v.1.15,2013-02-19 02:04:00,
2013-02-18 21:09:00,23.4,2.0,30.27,WSW,243,2.0,3.0,39,0.00,,,0.00,Wunderground v.1.15,2013-02-19 02:09:00,
2013-02-18 21:14:00,23.4,1.5,30.27,NNW,340,2.0,5.0,38,0.00,,,0.00,Wunderground v.1.15,2013-02-19 02:14:00,
2013-02-18 21:19:00,23.4,1.5,30.27,WSW,256,1.0,4.0,38,0.00,,,0.00,Wunderground v.1.15,2013-02-19 02:19:00,
2013-02-18 21:24:00,23.3,1.4,30.27,WSW,244,1.0,5.0,38,0.00,,,0.00,Wunderground v.1.15,2013-02-19 02:24:00,
2013-02-18 21:29:00,23.4,1.5,30.27,West,261,5.0,5.0,38,0.00,,,0.00,Wunderground v.1.15,2013-02-19 02:29:00,
2013-02-18 21:34:00,23.3,1.4,30.27,West,273,3.0,6.0,38,0.00,,,0.00,Wunderground v.1.15,2013-02-19 02:34:00,
2013-02-18 21:39:00,23.3,2.0,30.27,NW,315,0.0,2.0,39,0.00,,,0.00,Wunderground v.1.15,2013-02-19 02:39:00,
2013-02-18 21:44:00,23.3,1.4,30.27,WNW,294,3.0,7.0,38,0.00,,,0.00,Wunderground v.1.15,2013-02-19 02:44:00,
2013-02-18 21:50:00,23.3,2.0,30.27,SW,221,1.0,3.0,39,0.00,,,0.00,Wunderground v.1.15,2013-02-19 02:50:00,
2013-02-18 21:55:00,23.3,1.4,30.27,WSW,239,5.0,6.0,38,0.00,,,0.00,Wunderground v.1.15,2013-02-19 02:55:00,
2013-02-18 22:00:00,23.2,1.9,30.27,West,278,0.0,2.0,39,0.00,,,0.00,Wunderground v.1.15,2013-02-19 03:00:00,
2013-02-18 22:06:00,23.1,1.2,30.27,NW,306,0.0,4.0,38,0.00,,,0.00,Wunderground v.1.15,2013-02-19 03:06:00,
2013-02-18 22:11:00,23.1,1.8,30.28,West,271,1.0,2.0,39,0.00,,,0.00,Wunderground v.1.15,2013-02-19 03:11:00,
2013-02-18 22:16:00,23.1,1.2,30.29,NW,318,3.0,6.0,38,0.00,,,0.00,Wunderground v.1.15,2013-02-19 03:16:00,
2013-02-18 22:21:00,23.1,1.2,30.29,West,259,3.0,6.0,38,0.00,,,0.00,Wunderground v.1.15,2013-02-19 03:21:00,
2013-02-18 22:26:00,23.0,1.7,30.29,SW,232,2.0,6.0,39,0.00,,,0.00,Wunderground v.1.15,2013-02-19 03:26:00,
2013-02-18 22:31:00,23.1,1.8,30.29,WSW,258,2.0,6.0,39,0.00,,,0.00,Wunderground v.1.15,2013-02-19 03:31:00,
2013-02-18 22:36:00,23.1,1.8,30.29,SSW,203,1.0,8.0,39,0.00,,,0.00,Wunderground v.1.15,2013-02-19 03:36:00,
2013-02-18 22:41:00,23.1,1.2,30.29,WNW,283,1.0,7.0,38,0.00,,,0.00,Wunderground v.1.15,2013-02-19 03:41:00,
2013-02-18 22:46:00,23.0,1.7,30.29,West,276,1.0,7.0,39,0.00,,,0.00,Wunderground v.1.15,2013-02-19 03:46:00,
2013-02-18 22:51:00,24.2,13.8,30.30,WNW,298,1.0,4.0,64,0.00,,,0.00,Wunderground v.1.15,2013-02-19 03:51:00,
2013-02-18 22:57:00,24.2,10.3,30.30,WNW,282,1.0,7.0,55,0.00,,,0.00,Wunderground v.1.15,2013-02-19 03:57:00,
2013-02-18 23:02:00,23.8,5.0,30.30,WSW,246,1.0,8.0,44,0.00,,,0.00,Wunderground v.1.15,2013-02-19 04:02:00,
2013-02-18 23:07:00,23.4,2.6,30.29,WSW,238,0.0,8.0,40,0.00,,,0.00,Wunderground v.1.15,2013-02-19 04:07:00,
2013-02-18 23:12:00,23.2,2.4,30.29,WSW,254,3.0,7.0,40,0.00,,,0.00,Wunderground v.1.15,2013-02-19 04:12:00,
2013-02-18 23:17:00,23.1,2.3,30.29,NNW,334,0.0,7.0,40,0.00,,,0.00,Wunderground v.1.15,2013-02-19 04:17:00,
2013-02-18 23:22:00,23.1,1.8,30.29,WNW,298,0.0,6.0,39,0.00,,,0.00,Wunderground v.1.15,2013-02-19 04:22:00,
2013-02-18 23:27:00,23.1,2.3,30.29,WNW,293,0.0,6.0,40,0.00,,,0.00,Wunderground v.1.15,2013-02-19 04:27:00,
2013-02-18 23:32:00,23.2,4.5,30.29,WNW,293,0.0,2.0,44,0.00,,,0.00,Wunderground v.1.15,2013-02-19 04:32:00,
2013-02-18 23:37:00,23.5,6.2,30.28,WNW,293,0.0,2.0,47,0.00,,,0.00,Wunderground v.1.15,2013-02-19 04:37:00,
2013-02-18 23:42:00,23.4,3.6,30.29,WNW,293,0.0,2.0,42,0.00,,,0.00,Wunderground v.1.15,2013-02-19 04:42:00,
2013-02-18 23:43:00,20.8,2.8,30.30,WNW,293,1.0,2.0,45,0.00,,,0.00,Wunderground v.1.15,2013-02-19 04:43:00,
2013-02-18 23:44:00,20.8,2.3,30.30,WSW,257,1.0,5.0,44,0.00,,,0.00,Wunderground v.1.15,2013-02-19 04:44:00,
2013-02-18 23:45:00,20.8,2.8,30.30,WSW,257,1.0,5.0,45,0.00,,,0.00,Wunderground v.1.15,2013-02-19 04:45:00,
2013-02-18 23:46:00,20.7,2.7,30.30,WSW,255,2.0,5.0,45,0.00,,,0.00,Wunderground v.1.15,2013-02-19 04:46:00,
2013-02-18 23:47:00,22.1,1.9,30.29,WNW,293,1.0,3.0,41,0.00,,,0.00,Wunderground v.1.15,2013-02-19 04:47:00,
2013-02-18 23:48:00,20.8,2.3,30.30,WSW,255,0.0,5.0,44,0.00,,,0.00,Wunderground v.1.15,2013-02-19 04:48:00,
2013-02-18 23:49:00,20.8,2.3,30.30,WSW,255,1.0,5.0,44,0.00,,,0.00,Wunderground v.1.15,2013-02-19 04:49:00,
2013-02-18 23:50:00,20.9,2.4,30.30,WSW,255,2.0,3.0,44,0.00,,,0.00,Wunderground v.1.15,2013-02-19 04:50:00,
2013-02-18 23:52:00,21.3,1.7,30.30,WNW,293,0.0,1.0,42,0.00,,,0.00,Wunderground v.1.15,2013-02-19 04:52:00,
2013-02-18 23:57:00,20.9,2.9,30.30,WNW,293,0.0,3.0,45,0.00,,,0.00,Wunderground v.1.15,2013-02-19 04:57:00,